Location: B?dargowo
(53.3916°N, 14.4413°E)
Time: 09:15:12
(UTC+00:00)

COSMOS 2428 - Pass Details

Date: 05 February 2023
Orbit: 843 x 858 km, 70.9° (Epoch: 20 March)

Event Time Altitude Azimuth Distance (km) Brightness Sun altitude
Rises 18:03:52 0° 182° (S) 3,391 5.9 -19.7°
Reaches altitude 10° 18:06:26 10° 175° (S) 2,459 5.1 -20.1°
Enters shadow 18:11:06 37° 121° (ESE) 1,291 3.2 -20.8°
